| time (UTC) | temp F | wind direction | speed MPH | gust MPH | rain 1hr in | rain 24hr in | rain mn in | humidity % | barometer mb |
| 20260505200524 | 57 | 110 | 8.0 | 20.0 | 0.00 | 0.00 | 0.00 | 48 | 1014.3 |
| 20260505200039 | 56 | 158 | 9.0 | 20.0 | 0.00 | 0.00 | 0.00 | 50 | 1014.1 |
| 20260505195524 | 56 | 163 | 11.0 | 20.0 | 0.00 | 0.00 | 0.00 | 51 | 1014.1 |
| 20260505195024 | 56 | 178 | 9.0 | 18.0 | 0.00 | 0.00 | 0.00 | 50 | 1014.0 |
| 20260505194538 | 56 | 104 | 9.0 | 18.0 | 0.00 | 0.00 | 0.00 | 50 | 1014.1 |
| 20260505194032 | 55 | 140 | 8.0 | 18.0 | 0.00 | 0.00 | 0.00 | 50 | 1014.1 |
| 20260505193523 | 55 | 139 | 8.0 | 20.0 | 0.00 | 0.00 | 0.00 | 49 | 1014.2 |
| 20260505193037 | 56 | 190 | 8.0 | 20.0 | 0.00 | 0.00 | 0.00 | 49 | 1014.2 |
| 20260505192522 | 56 | 190 | 8.0 | 19.0 | 0.00 | 0.00 | 0.00 | 48 | 1014.1 |
| 20260505192024 | 56 | 161 | 8.0 | 17.0 | 0.00 | 0.00 | 0.00 | 47 | 1014.2 |
| 20260505191536 | 57 | 155 | 5.0 | 17.0 | 0.00 | 0.00 | 0.00 | 46 | 1014.1 |
| 20260505191021 | 57 | 149 | 7.0 | 16.0 | 0.00 | 0.00 | 0.00 | 45 | 1014.2 |
| 20260505190522 | 57 | 117 | 7.0 | 15.0 | 0.00 | 0.00 | 0.00 | 45 | 1014.1 |
| 20260505190035 | 57 | 138 | 7.0 | 17.0 | 0.00 | 0.00 | 0.00 | 44 | 1014.1 |
| 20260505185524 | 57 | 113 | 8.0 | 17.0 | 0.00 | 0.00 | 0.00 | 45 | 1014.1 |
| 20260505185022 | 56 | 105 | 8.0 | 14.0 | 0.00 | 0.00 | 0.00 | 45 | 1014.1 |
| 20260505184542 | 56 | 107 | 6.0 | 14.0 | 0.00 | 0.00 | 0.00 | 43 | 1014.1 |
| 20260505184024 | 57 | 141 | 8.0 | 15.0 | 0.00 | 0.00 | 0.00 | 43 | 1014.2 |
| 20260505183528 | 58 | 121 | 8.0 | 15.0 | 0.00 | 0.00 | 0.00 | 42 | 1014.2 |
| 20260505183038 | 58 | 75 | 6.0 | 14.0 | 0.00 | 0.00 | 0.00 | 40 | 1014.3 |
| 20260505182524 | 58 | 138 | 5.0 | 14.0 | 0.00 | 0.00 | 0.00 | 40 | 1014.2 |
| 20260505182028 | 59 | 99 | 6.0 | 14.0 | 0.00 | 0.00 | 0.00 | 39 | 1014.1 |
| 20260505181555 | 59 | 165 | 3.0 | 12.0 | 0.00 | 0.00 | 0.00 | 38 | 1013.9 |
| 20260505181028 | 59 | 69 | 6.0 | 12.0 | 0.00 | 0.00 | 0.00 | 38 | 1014.1 |
| 20260505180524 | 59 | 62 | 5.0 | 12.0 | 0.00 | 0.00 | 0.00 | 38 | 1014.1 |
| 20260505180037 | 57 | 65 | 3.0 | 12.0 | 0.00 | 0.00 | 0.00 | 38 | 1014.2 |
| 20260505175524 | 56 | 90 | 3.0 | 12.0 | 0.00 | 0.00 | 0.00 | 39 | 1014.3 |
| 20260505175024 | 56 | 173 | 3.0 | 9.0 | 0.00 | 0.00 | 0.00 | 40 | 1014.3 |
| 20260505174538 | 56 | 146 | 4.0 | 8.0 | 0.00 | 0.00 | 0.00 | 39 | 1014.6 |
| 20260505174024 | 57 | 0 | 3.0 | 8.0 | 0.00 | 0.00 | 0.00 | 38 | 1014.7 |
| 20260505173523 | 57 | 78 | 1.0 | 8.0 | 0.00 | 0.00 | 0.00 | 39 | 1014.6 |
| 20260505173036 | 57 | 50 | 2.0 | 9.0 | 0.00 | 0.00 | 0.00 | 39 | 1014.6 |
| 20260505172524 | 57 | 66 | 2.0 | 9.0 | 0.00 | 0.00 | 0.00 | 39 | 1014.6 |
| 20260505172025 | 58 | 108 | 4.0 | 9.0 | 0.00 | 0.00 | 0.00 | 38 | 1014.5 |
| 20260505171542 | 57 | 88 | 1.0 | 9.0 | 0.00 | 0.00 | 0.00 | 39 | 1014.6 |
| 20260505171025 | 56 | 175 | 4.0 | 8.0 | 0.00 | 0.00 | 0.00 | 40 | 1014.6 |
| 20260505170524 | 55 | 0 | 1.0 | 7.0 | 0.00 | 0.00 | 0.00 | 40 | 1014.7 |
| 20260505170038 | 55 | 163 | 3.0 | 10.0 | 0.00 | 0.00 | 0.00 | 40 | 1014.6 |
| 20260505165524 | 54 | 67 | 5.0 | 11.0 | 0.00 | 0.00 | 0.00 | 41 | 1014.8 |
| 20260505165026 | 54 | 145 | 4.0 | 11.0 | 0.00 | 0.00 | 0.00 | 41 | 1014.9 |
| 20260505164538 | 54 | 190 | 3.0 | 8.0 | 0.00 | 0.00 | 0.00 | 42 | 1015.0 |
| 20260505164024 | 54 | 132 | 4.0 | 10.0 | 0.00 | 0.00 | 0.00 | 43 | 1015.0 |
| 20260505163526 | 53 | 131 | 6.0 | 10.0 | 0.00 | 0.00 | 0.00 | 43 | 1015.0 |
| 20260505163035 | 53 | 123 | 4.0 | 11.0 | 0.00 | 0.00 | 0.00 | 44 | 1015.1 |
| 20260505162524 | 53 | 156 | 6.0 | 11.0 | 0.00 | 0.00 | 0.00 | 45 | 1015.1 |
| 20260505162024 | 53 | 148 | 6.0 | 11.0 | 0.00 | 0.00 | 0.00 | 45 | 1015.1 |
| 20260505161548 | 52 | 174 | 5.0 | 11.0 | 0.00 | 0.00 | 0.00 | 46 | 1015.2 |
| 20260505161024 | 52 | 171 | 5.0 | 13.0 | 0.00 | 0.00 | 0.00 | 48 | 1015.2 |
| 20260505160526 | 51 | 183 | 5.0 | 13.0 | 0.00 | 0.00 | 0.00 | 48 | 1015.2 |
| 20260505153044 | 51 | 120 | 5.0 | 20.0 | 0.00 | 0.00 | 0.00 | 49 | 1015.2 |
| 20260505152523 | 51 | 153 | 7.0 | 20.0 | 0.00 | 0.00 | 0.00 | 48 | 1015.3 |
| 20260505152025 | 51 | 183 | 5.0 | 14.0 | 0.00 | 0.00 | 0.00 | 48 | 1015.2 |
| 20260505151536 | 51 | 105 | 6.0 | 14.0 | 0.00 | 0.00 | 0.00 | 47 | 1015.1 |
| 20260505151023 | 51 | 119 | 8.0 | 14.0 | 0.00 | 0.00 | 0.00 | 47 | 1015.2 |
| 20260505150524 | 52 | 111 | 5.0 | 15.0 | 0.00 | 0.00 | 0.00 | 48 | 1015.2 |
| 20260505140526 | 54 | 156 | 7.0 | 14.0 | 0.00 | 0.00 | 0.00 | 45 | 1015.4 |
| 20260505125024 | 49 | 196 | 3.0 | 8.0 | 0.00 | 0.00 | 0.00 | 45 | 1015.4 |
| 20260505124541 | 48 | 188 | 3.0 | 5.0 | 0.00 | 0.00 | 0.00 | 46 | 1015.6 |
| 20260505124026 | 48 | 176 | 1.0 | 5.0 | 0.00 | 0.00 | 0.00 | 45 | 1015.6 |
| 20260505123526 | 48 | 0 | 1.0 | 7.0 | 0.00 | 0.00 | 0.00 | 45 | 1015.6 |
| 20260505123048 | 48 | 191 | 3.0 | 7.0 | 0.00 | 0.00 | 0.00 | 46 | 1015.5 |
| 20260505122524 | 48 | 198 | 0.0 | 5.0 | 0.00 | 0.00 | 0.00 | 45 | 1015.5 |
| 20260505122028 | 48 | 0 | 0.0 | 8.0 | 0.00 | 0.00 | 0.00 | 45 | 1015.3 |
| 20260505121536 | 48 | 198 | 1.0 | 8.0 | 0.00 | 0.00 | 0.00 | 45 | 1015.2 |
| 20260505121026 | 48 | 194 | 3.0 | 8.0 | 0.00 | 0.00 | 0.00 | 45 | 1015.1 |
| 20260505120523 | 47 | 201 | 3.0 | 8.0 | 0.00 | 0.00 | 0.00 | 45 | 1015.0 |
| 20260505115525 | 48 | 213 | 1.0 | 6.0 | 0.00 | 0.00 | 0.00 | 44 | 1014.9 |
| 20260505115101 | 48 | 198 | 1.0 | 3.0 | 0.00 | 0.00 | 0.00 | 44 | 1014.8 |
| 20260505114539 | 48 | 0 | 0.0 | 2.0 | 0.00 | 0.00 | 0.00 | 43 | 1014.9 |
| 20260505114025 | 48 | 0 | 0.0 | 2.0 | 0.00 | 0.00 | 0.00 | 43 | 1015.0 |
| 20260505113525 | 49 | 0 | 0.0 | 4.0 | 0.00 | 0.00 | 0.00 | 42 | 1015.2 |
| 20260505113038 | 49 | 0 | 0.0 | 5.0 | 0.00 | 0.00 | 0.00 | 42 | 1015.2 |
| 20260505112524 | 49 | 192 | 2.0 | 5.0 | 0.00 | 0.00 | 0.00 | 42 | 1015.2 |
| 20260505112025 | 49 | 190 | 2.0 | 5.0 | 0.00 | 0.00 | 0.00 | 42 | 1015.2 |
| 20260505111538 | 50 | 176 | 2.0 | 5.0 | 0.00 | 0.00 | 0.00 | 41 | 1015.1 |
| 20260505111028 | 50 | 185 | 2.0 | 5.0 | 0.00 | 0.00 | 0.00 | 41 | 1015.2 |
| 20260505110525 | 50 | 180 | 2.0 | 4.0 | 0.00 | 0.00 | 0.00 | 41 | 1015.0 |
| 20260505102029 | 51 | 132 | 3.0 | 6.0 | 0.00 | 0.00 | 0.00 | 38 | 1014.7 |
| 20260505101540 | 51 | 178 | 2.0 | 5.0 | 0.00 | 0.00 | 0.00 | 38 | 1014.8 |
| 20260505101025 | 52 | 188 | 1.0 | 3.0 | 0.00 | 0.00 | 0.00 | 39 | 1014.7 |
| 20260505100525 | 52 | 0 | 1.0 | 7.0 | 0.00 | 0.00 | 0.00 | 38 | 1014.6 |
| 20260505100040 | 52 | 181 | 1.0 | 8.0 | 0.00 | 0.00 | 0.00 | 38 | 1014.6 |
| 20260505095523 | 52 | 162 | 3.0 | 8.0 | 0.00 | 0.00 | 0.00 | 38 | 1014.5 |
| 20260505095025 | 52 | 194 | 4.0 | 9.0 | 0.00 | 0.00 | 0.00 | 38 | 1014.6 |
| 20260505094536 | 52 | 172 | 5.0 | 9.0 | 0.00 | 0.00 | 0.00 | 38 | 1014.6 |
| 20260505094025 | 52 | 179 | 3.0 | 8.0 | 0.00 | 0.00 | 0.00 | 37 | 1014.7 |
| 20260505093524 | 52 | 170 | 3.0 | 7.0 | 0.00 | 0.00 | 0.00 | 38 | 1014.8 |
| 20260505093035 | 52 | 196 | 1.0 | 5.0 | 0.00 | 0.00 | 0.00 | 38 | 1014.8 |
| 20260505092526 | 52 | 196 | 2.0 | 6.0 | 0.00 | 0.00 | 0.00 | 38 | 1014.8 |
| 20260505092026 | 52 | 196 | 3.0 | 8.0 | 0.00 | 0.00 | 0.00 | 38 | 1014.7 |
| 20260505091535 | 53 | 194 | 3.0 | 8.0 | 0.00 | 0.00 | 0.00 | 38 | 1014.6 |
| 20260505091025 | 53 | 174 | 3.0 | 8.0 | 0.00 | 0.00 | 0.00 | 37 | 1014.6 |
| 20260505090524 | 53 | 192 | 3.0 | 8.0 | 0.00 | 0.00 | 0.00 | 37 | 1014.9 |
| 20260505090037 | 53 | 0 | 1.0 | 6.0 | 0.00 | 0.00 | 0.00 | 37 | 1014.9 |
| 20260505085526 | 53 | 210 | 1.0 | 6.0 | 0.00 | 0.00 | 0.00 | 36 | 1015.0 |
| 20260505085024 | 53 | 209 | 1.0 | 6.0 | 0.00 | 0.00 | 0.00 | 36 | 1014.9 |
| 20260505084541 | 53 | 207 | 2.0 | 6.0 | 0.00 | 0.00 | 0.00 | 36 | 1015.0 |
| 20260505084024 | 53 | 209 | 1.0 | 5.0 | 0.00 | 0.00 | 0.00 | 36 | 1015.0 |
| 20260505083526 | 53 | 209 | 1.0 | 5.0 | 0.00 | 0.00 | 0.00 | 36 | 1015.0 |
| 20260505083044 | 54 | 0 | 0.0 | 0.0 | 0.00 | 0.00 | 0.00 | 35 | 1015.2 |
| 20260505082526 | 54 | 0 | 0.0 | 3.0 | 0.00 | 0.00 | 0.00 | 35 | 1015.4 |
| 20260505082026 | 54 | 0 | 0.0 | 5.0 | 0.00 | 0.00 | 0.00 | 35 | 1015.6 |
| 20260505081536 | 54 | 183 | 1.0 | 9.0 | 0.00 | 0.00 | 0.00 | 34 | 1015.7 |
| 20260505081029 | 54 | 180 | 2.0 | 10.0 | 0.00 | 0.00 | 0.00 | 34 | 1015.9 |
| 20260505080529 | 55 | 163 | 5.0 | 10.0 | 0.00 | 0.00 | 0.00 | 34 | 1015.8 |
| 20260505080041 | 54 | 186 | 5.0 | 8.0 | 0.00 | 0.00 | 0.00 | 34 | 1015.6 |
| 20260505075523 | 54 | 175 | 3.0 | 7.0 | 0.00 | 0.00 | 0.00 | 35 | 1015.5 |
| 20260505075028 | 54 | 186 | 3.0 | 7.0 | 0.00 | 0.00 | 0.00 | 35 | 1015.5 |
| 20260505074536 | 54 | 184 | 2.0 | 6.0 | 0.00 | 0.00 | 0.00 | 35 | 1015.6 |
| 20260505074023 | 54 | 179 | 3.0 | 6.0 | 0.00 | 0.00 | 0.00 | 35 | 1015.7 |
| 20260505073525 | 54 | 194 | 1.0 | 5.0 | 0.00 | 0.00 | 0.00 | 35 | 1015.6 |
| 20260505073037 | 54 | 0 | 0.0 | 1.0 | 0.00 | 0.00 | 0.00 | 35 | 1015.4 |
| 20260505072525 | 55 | 0 | 0.0 | 2.0 | 0.00 | 0.00 | 0.00 | 35 | 1015.4 |
| 20260505072027 | 55 | 195 | 0.0 | 3.0 | 0.00 | 0.00 | 0.00 | 34 | 1015.2 |
| 20260505071535 | 55 | 195 | 0.0 | 4.0 | 0.00 | 0.00 | 0.00 | 34 | 1015.3 |
| 20260505071026 | 55 | 195 | 1.0 | 6.0 | 0.00 | 0.00 | 0.00 | 33 | 1015.2 |
| 20260505070528 | 56 | 196 | 2.0 | 6.0 | 0.00 | 0.00 | 0.00 | 33 | 1015.3 |
| 20260505070036 | 56 | 193 | 1.0 | 5.0 | 0.00 | 0.00 | 0.00 | 32 | 1015.3 |
| 20260505065524 | 56 | 188 | 2.0 | 6.0 | 0.00 | 0.00 | 0.00 | 32 | 1015.3 |
| 20260505065024 | 57 | 188 | 3.0 | 8.0 | 0.00 | 0.00 | 0.00 | 32 | 1015.3 |
| 20260505064549 | 57 | 138 | 4.0 | 9.0 | 0.00 | 0.00 | 0.00 | 32 | 1015.4 |
| 20260505064024 | 57 | 149 | 4.0 | 11.0 | 0.00 | 0.00 | 0.00 | 31 | 1015.3 |
| 20260505063523 | 57 | 167 | 6.0 | 14.0 | 0.00 | 0.00 | 0.00 | 31 | 1015.2 |
| 20260505063041 | 57 | 164 | 6.0 | 14.0 | 0.00 | 0.00 | 0.00 | 31 | 1015.2 |
| 20260505062526 | 57 | 159 | 5.0 | 12.0 | 0.00 | 0.00 | 0.00 | 31 | 1015.2 |
| 20260505062026 | 58 | 134 | 5.0 | 9.0 | 0.00 | 0.00 | 0.00 | 31 | 1015.3 |
| 20260505061539 | 58 | 146 | 4.0 | 13.0 | 0.00 | 0.00 | 0.00 | 31 | 1015.4 |
| 20260505061025 | 58 | 161 | 5.0 | 13.0 | 0.00 | 0.00 | 0.00 | 31 | 1015.2 |
| 20260505060525 | 58 | 136 | 6.0 | 13.0 | 0.00 | 0.00 | 0.00 | 31 | 1015.4 |
| 20260505060042 | 58 | 180 | 5.0 | 13.0 | 0.00 | 0.00 | 0.00 | 31 | 1015.5 |
| 20260505055524 | 58 | 148 | 6.0 | 15.0 | 0.00 | 0.00 | 0.00 | 32 | 1015.5 |
| 20260505055025 | 58 | 138 | 5.0 | 15.0 | 0.00 | 0.00 | 0.00 | 32 | 1015.5 |
| 20260505054548 | 57 | 150 | 3.0 | 8.0 | 0.00 | 0.00 | 0.00 | 33 | 1015.3 |
| 20260505054025 | 57 | 0 | 1.0 | 6.0 | 0.00 | 0.00 | 0.00 | 34 | 1015.3 |
| 20260505053525 | 57 | 0 | 1.0 | 6.0 | 0.00 | 0.00 | 0.00 | 34 | 1015.2 |
| 20260505053035 | 58 | 0 | 0.0 | 2.0 | 0.00 | 0.00 | 0.00 | 34 | 1015.2 |
| 20260505052522 | 58 | 0 | 0.0 | 2.0 | 0.00 | 0.00 | 0.00 | 34 | 1015.1 |
| 20260505052022 | 58 | 0 | 0.0 | 1.0 | 0.00 | 0.00 | 0.00 | 33 | 1015.2 |
| 20260505051535 | 58 | 0 | 0.0 | 9.0 | 0.00 | 0.00 | 0.00 | 33 | 1015.2 |
| 20260505051025 | 58 | 0 | 0.0 | 9.0 | 0.00 | 0.00 | 0.00 | 33 | 1015.1 |
| 20260505050524 | 58 | 165 | 4.0 | 9.0 | 0.00 | 0.00 | 0.00 | 32 | 1015.2 |
| 20260505041542 | 59 | 0 | 1.0 | 5.0 | 0.00 | 0.00 | 0.00 | 31 | 1015.4 |
| 20260505041023 | 59 | 196 | 2.0 | 6.0 | 0.00 | 0.00 | 0.00 | 30 | 1015.4 |
| 20260505040525 | 59 | 192 | 1.0 | 6.0 | 0.00 | 0.00 | 0.00 | 30 | 1015.4 |
| 20260505040040 | 59 | 190 | 2.0 | 7.0 | 0.00 | 0.00 | 0.00 | 30 | 1015.5 |
| 20260505035526 | 59 | 194 | 2.0 | 7.0 | 0.00 | 0.00 | 0.00 | 29 | 1015.5 |
| 20260505035024 | 59 | 191 | 3.0 | 9.0 | 0.00 | 0.00 | 0.00 | 29 | 1015.5 |
| 20260505034552 | 59 | 209 | 2.0 | 9.0 | 0.00 | 0.00 | 0.00 | 29 | 1015.4 |
| 20260505034025 | 60 | 190 | 4.0 | 9.0 | 0.00 | 0.00 | 0.00 | 28 | 1015.5 |
| 20260505033522 | 60 | 215 | 2.0 | 8.0 | 0.00 | 0.00 | 0.00 | 28 | 1015.3 |
| 20260505033039 | 60 | 171 | 2.0 | 8.0 | 0.00 | 0.00 | 0.00 | 27 | 1015.2 |
| 20260505032525 | 60 | 210 | 4.0 | 8.0 | 0.00 | 0.00 | 0.00 | 27 | 1015.2 |
| 20260505032026 | 60 | 201 | 3.0 | 8.0 | 0.00 | 0.00 | 0.00 | 27 | 1015.2 |
| 20260505031536 | 60 | 192 | 3.0 | 8.0 | 0.00 | 0.00 | 0.00 | 27 | 1015.1 |
| 20260505031023 | 61 | 181 | 2.0 | 8.0 | 0.00 | 0.00 | 0.00 | 26 | 1014.8 |
| 20260505030523 | 61 | 193 | 4.0 | 12.0 | 0.00 | 0.00 | 0.00 | 26 | 1014.8 |
| 20260505030047 | 61 | 202 | 5.0 | 13.0 | 0.00 | 0.00 | 0.00 | 25 | 1014.8 |
| 20260505025528 | 61 | 178 | 6.0 | 14.0 | 0.00 | 0.00 | 0.00 | 25 | 1014.6 |
| 20260505025023 | 61 | 178 | 5.0 | 14.0 | 0.00 | 0.00 | 0.00 | 25 | 1014.8 |
| 20260505024533 | 62 | 176 | 6.0 | 14.0 | 0.00 | 0.00 | 0.00 | 25 | 1014.6 |
| 20260505024024 | 62 | 175 | 5.0 | 11.0 | 0.00 | 0.00 | 0.00 | 25 | 1014.4 |
| 20260505023524 | 62 | 154 | 6.0 | 12.0 | 0.00 | 0.00 | 0.00 | 24 | 1014.3 |
| 20260505023044 | 62 | 184 | 6.0 | 12.0 | 0.00 | 0.00 | 0.00 | 24 | 1014.4 |
| 20260505022525 | 62 | 190 | 5.0 | 14.0 | 0.00 | 0.00 | 0.00 | 23 | 1014.3 |
| 20260505022024 | 62 | 192 | 6.0 | 14.0 | 0.00 | 0.00 | 0.00 | 23 | 1014.3 |
| 20260505021539 | 63 | 196 | 5.0 | 19.0 | 0.00 | 0.00 | 0.00 | 22 | 1014.3 |
| 20260505021026 | 63 | 180 | 9.0 | 21.0 | 0.00 | 0.00 | 0.00 | 22 | 1014.3 |
| 20260505020525 | 63 | 194 | 10.0 | 22.0 | 0.00 | 0.00 | 0.00 | 22 | 1014.3 |
| 20260505020053 | 63 | 192 | 11.0 | 22.0 | 0.00 | 0.00 | 0.00 | 22 | 1014.3 |
| 20260505015525 | 63 | 130 | 7.0 | 21.0 | 0.00 | 0.00 | 0.00 | 21 | 1014.3 |
| 20260505015025 | 63 | 177 | 8.0 | 19.0 | 0.00 | 0.00 | 0.00 | 21 | 1014.3 |
| 20260505014544 | 63 | 165 | 6.0 | 16.0 | 0.00 | 0.00 | 0.00 | 21 | 1014.1 |
| 20260505014024 | 64 | 148 | 8.0 | 23.0 | 0.00 | 0.00 | 0.00 | 20 | 1014.1 |
| 20260505013525 | 64 | 156 | 11.0 | 23.0 | 0.00 | 0.00 | 0.00 | 20 | 1014.0 |
| 20260505013040 | 64 | 171 | 8.0 | 20.0 | 0.00 | 0.00 | 0.00 | 20 | 1014.0 |
| 20260505012527 | 64 | 184 | 10.0 | 18.0 | 0.00 | 0.00 | 0.00 | 20 | 1013.9 |
| 20260505012024 | 64 | 160 | 7.0 | 18.0 | 0.00 | 0.00 | 0.00 | 20 | 1013.8 |
| 20260505011540 | 64 | 154 | 4.0 | 12.0 | 0.00 | 0.00 | 0.00 | 19 | 1013.7 |
| 20260505011023 | 65 | 160 | 6.0 | 20.0 | 0.00 | 0.00 | 0.00 | 19 | 1013.8 |
| 20260505010524 | 65 | 166 | 5.0 | 23.0 | 0.00 | 0.00 | 0.00 | 19 | 1013.8 |
| 20260505010035 | 65 | 189 | 9.0 | 24.0 | 0.00 | 0.00 | 0.00 | 19 | 1013.8 |
| 20260505005524 | 65 | 181 | 12.0 | 24.0 | 0.00 | 0.00 | 0.00 | 19 | 1013.9 |
| 20260505005025 | 65 | 142 | 7.0 | 19.0 | 0.00 | 0.00 | 0.00 | 19 | 1014.0 |
| 20260505004558 | 65 | 167 | 10.0 | 16.0 | 0.00 | 0.00 | 0.00 | 19 | 1014.0 |
| 20260505004024 | 65 | 134 | 9.0 | 20.0 | 0.00 | 0.00 | 0.00 | 19 | 1014.1 |
| 20260505003527 | 66 | 141 | 10.0 | 20.0 | 0.00 | 0.00 | 0.00 | 19 | 1014.1 |
| 20260505003036 | 66 | 142 | 7.0 | 15.0 | 0.00 | 0.00 | 0.00 | 19 | 1014.0 |
| 20260505002525 | 66 | 144 | 8.0 | 21.0 | 0.00 | 0.00 | 0.00 | 19 | 1013.9 |
| 20260505002024 | 66 | 190 | 9.0 | 21.0 | 0.00 | 0.00 | 0.00 | 18 | 1013.9 |
| 20260505001539 | 66 | 161 | 9.0 | 20.0 | 0.00 | 0.00 | 0.00 | 19 | 1014.0 |
| 20260505001029 | 66 | 178 | 10.0 | 20.0 | 0.00 | 0.00 | 0.00 | 19 | 1014.0 |
| 20260505000526 | 66 | 174 | 11.0 | 20.0 | 0.00 | 0.00 | 0.00 | 19 | 1014.2 |
| 20260505000037 | 66 | 161 | 8.0 | 23.0 | 0.00 | 0.00 | 0.00 | 19 | 1014.3 |
| 20260504235525 | 66 | 169 | 10.0 | 23.0 | 0.00 | 0.00 | 0.00 | 19 | 1014.3 |
| 20260504235025 | 66 | 142 | 8.0 | 19.0 | 0.00 | 0.00 | 0.00 | 20 | 1014.2 |
| 20260504234536 | 66 | 166 | 10.0 | 19.0 | 0.00 | 0.00 | 0.00 | 20 | 1014.4 |
| 20260504234023 | 66 | 144 | 7.0 | 14.0 | 0.00 | 0.00 | 0.00 | 20 | 1014.4 |
| 20260504233522 | 66 | 120 | 5.0 | 19.0 | 0.00 | 0.00 | 0.00 | 21 | 1014.3 |
| 20260504233039 | 66 | 141 | 10.0 | 19.0 | 0.00 | 0.00 | 0.00 | 20 | 1014.2 |
| 20260504232523 | 67 | 136 | 10.0 | 17.0 | 0.00 | 0.00 | 0.00 | 20 | 1014.3 |
| 20260504232023 | 67 | 157 | 7.0 | 19.0 | 0.00 | 0.00 | 0.00 | 20 | 1014.1 |
| 20260504231549 | 67 | 170 | 9.0 | 19.0 | 0.00 | 0.00 | 0.00 | 20 | 1014.1 |
| 20260504231023 | 67 | 138 | 10.0 | 19.0 | 0.00 | 0.00 | 0.00 | 20 | 1014.1 |
| 20260504230529 | 67 | 145 | 8.0 | 20.0 | 0.00 | 0.00 | 0.00 | 21 | 1014.2 |
| 20260504230038 | 67 | 188 | 10.0 | 20.0 | 0.00 | 0.00 | 0.00 | 20 | 1014.5 |
| 20260504225524 | 67 | 175 | 9.0 | 22.0 | 0.00 | 0.00 | 0.00 | 20 | 1014.6 |
| 20260504225022 | 67 | 163 | 13.0 | 22.0 | 0.00 | 0.00 | 0.00 | 20 | 1014.6 |
| 20260504224541 | 67 | 159 | 10.0 | 20.0 | 0.00 | 0.00 | 0.00 | 20 | 1014.6 |
| 20260504224025 | 67 | 167 | 8.0 | 16.0 | 0.00 | 0.00 | 0.00 | 20 | 1014.7 |
| 20260504223523 | 66 | 150 | 8.0 | 23.0 | 0.00 | 0.00 | 0.00 | 21 | 1014.6 |
| 20260504223035 | 66 | 159 | 9.0 | 23.0 | 0.00 | 0.00 | 0.00 | 20 | 1014.7 |
| 20260504222524 | 66 | 157 | 13.0 | 23.0 | 0.00 | 0.00 | 0.00 | 20 | 1014.7 |
| 20260504222028 | 66 | 178 | 7.0 | 21.0 | 0.00 | 0.00 | 0.00 | 20 | 1014.9 |
| 20260504221607 | 66 | 158 | 10.0 | 22.0 | 0.00 | 0.00 | 0.00 | 19 | 1014.9 |
| 20260504221024 | 66 | 129 | 11.0 | 22.0 | 0.00 | 0.00 | 0.00 | 19 | 1015.1 |
| 20260504220523 | 67 | 117 | 9.0 | 19.0 | 0.00 | 0.00 | 0.00 | 19 | 1015.2 |
| 20260504220042 | 67 | 114 | 10.0 | 21.0 | 0.00 | 0.00 | 0.00 | 19 | 1015.2 |
| 20260504215527 | 67 | 180 | 9.0 | 25.0 | 0.00 | 0.00 | 0.00 | 19 | 1015.4 |
| 20260504215024 | 67 | 140 | 13.0 | 25.0 | 0.00 | 0.00 | 0.00 | 18 | 1015.4 |
| 20260504214538 | 68 | 122 | 9.0 | 21.0 | 0.00 | 0.00 | 0.00 | 17 | 1015.2 |
| 20260504214024 | 68 | 148 | 7.0 | 19.0 | 0.00 | 0.00 | 0.00 | 16 | 1015.2 |
| 20260504213524 | 68 | 188 | 8.0 | 19.0 | 0.00 | 0.00 | 0.00 | 16 | 1015.2 |
| 20260504213045 | 68 | 147 | 8.0 | 36.0 | 0.00 | 0.00 | 0.00 | 16 | 1015.4 |
| 20260504212525 | 68 | 175 | 10.0 | 36.0 | 0.00 | 0.00 | 0.00 | 16 | 1015.5 |
| 20260504212024 | 68 | 138 | 11.0 | 28.0 | 0.00 | 0.00 | 0.00 | 17 | 1015.1 |
| 20260504211536 | 67 | 132 | 12.0 | 26.0 | 0.00 | 0.00 | 0.00 | 17 | 1015.6 |
| 20260504211024 | 67 | 186 | 11.0 | 26.0 | 0.00 | 0.00 | 0.00 | 18 | 1015.7 |
| 20260504210525 | 67 | 142 | 12.0 | 20.0 | 0.00 | 0.00 | 0.00 | 17 | 1015.8 |
| 20260504210035 | 67 | 123 | 9.0 | 20.0 | 0.00 | 0.00 | 0.00 | 18 | 1015.9 |
| 20260504205524 | 67 | 162 | 8.0 | 20.0 | 0.00 | 0.00 | 0.00 | 17 | 1016.0 |
| 20260504205029 | 67 | 89 | 11.0 | 23.0 | 0.00 | 0.00 | 0.00 | 18 | 1016.1 |
| 20260504204539 | 67 | 136 | 11.0 | 23.0 | 0.00 | 0.00 | 0.00 | 18 | 1016.1 |
| 20260504204024 | 67 | 141 | 10.0 | 20.0 | 0.00 | 0.00 | 0.00 | 18 | 1016.2 |
| 20260504203524 | 67 | 158 | 10.0 | 20.0 | 0.00 | 0.00 | 0.00 | 19 | 1016.4 |
| 20260504203041 | 67 | 209 | 10.0 | 20.0 | 0.00 | 0.00 | 0.00 | 20 | 1016.4 |
| 20260504202524 | 66 | 157 | 12.0 | 21.0 | 0.00 | 0.00 | 0.00 | 20 | 1016.4 |
| 20260504202024 | 67 | 132 | 7.0 | 21.0 | 0.00 | 0.00 | 0.00 | 20 | 1016.4 |
| 20260504201536 | 66 | 188 | 10.0 | 18.0 | 0.00 | 0.00 | 0.00 | 20 | 1016.5 |
| 20260504201023 | 66 | 147 | 8.0 | 16.0 | 0.00 | 0.00 | 0.00 | 19 | 1016.4 |